Year,Month,Day,Hour,Minute,Value (Times are PST for temperature in C)
2016,08,07,00,00,15.50
2016,08,07,00,01,15.50
2016,08,07,00,02,15.40
2016,08,07,00,03,15.50
2016,08,07,00,04,15.40
2016,08,07,00,05,15.40
2016,08,07,00,06,15.40
2016,08,07,00,07,15.40
2016,08,07,00,08,15.40
2016,08,07,00,09,15.40
2016,08,07,00,10,15.40
2016,08,07,00,11,15.40
2016,08,07,00,12,15.30
2016,08,07,00,13,15.30
2016,08,07,00,14,15.30
2016,08,07,00,15,15.30
2016,08,07,00,16,15.30
2016,08,07,00,17,15.30
2016,08,07,00,18,15.20
2016,08,07,00,19,15.20
2016,08,07,00,20,15.20
2016,08,07,00,21,15.20
2016,08,07,00,22,15.20
2016,08,07,00,23,15.20
2016,08,07,00,24,15.20
2016,08,07,00,25,15.20
2016,08,07,00,26,15.20
2016,08,07,00,27,15.20
2016,08,07,00,28,15.20
2016,08,07,00,29,15.20
2016,08,07,00,30,15.10
2016,08,07,00,31,15.10
2016,08,07,00,32,15.10
2016,08,07,00,33,15.10
2016,08,07,00,34,15.10
2016,08,07,00,35,15.10
2016,08,07,00,36,15.10
2016,08,07,00,37,15.10
2016,08,07,00,38,15.10
2016,08,07,00,39,15.10
2016,08,07,00,40,15.10
2016,08,07,00,41,15.10
2016,08,07,00,42,15.10
2016,08,07,00,43,15.00
2016,08,07,00,44,15.00
2016,08,07,00,45,15.00
2016,08,07,00,46,15.00
2016,08,07,00,47,15.00
2016,08,07,00,48,15.00
2016,08,07,00,49,14.90
2016,08,07,00,50,14.90
2016,08,07,00,51,14.90
2016,08,07,00,52,14.90
2016,08,07,00,53,14.90
2016,08,07,00,54,14.90
2016,08,07,00,55,14.90
2016,08,07,00,56,14.90
2016,08,07,00,57,14.90
2016,08,07,00,58,14.90
2016,08,07,00,59,14.90
2016,08,07,01,00,14.90
2016,08,07,01,01,14.90
2016,08,07,01,02,14.90
2016,08,07,01,03,14.90
2016,08,07,01,04,14.90
2016,08,07,01,05,14.90
2016,08,07,01,06,14.90
2016,08,07,01,07,14.90
2016,08,07,01,08,14.90
2016,08,07,01,09,14.80
2016,08,07,01,10,14.80
2016,08,07,01,11,14.80
2016,08,07,01,12,14.80
2016,08,07,01,13,14.80
2016,08,07,01,14,14.80
2016,08,07,01,15,14.80
2016,08,07,01,16,14.70
2016,08,07,01,17,14.70
2016,08,07,01,18,14.70
2016,08,07,01,19,14.70
2016,08,07,01,20,14.70
2016,08,07,01,21,14.60
2016,08,07,01,22,14.60
2016,08,07,01,23,14.60
2016,08,07,01,24,14.60
2016,08,07,01,25,14.60
2016,08,07,01,26,14.50
2016,08,07,01,27,14.50
2016,08,07,01,28,14.50
2016,08,07,01,29,14.50
2016,08,07,01,30,14.40
2016,08,07,01,31,14.40
2016,08,07,01,32,14.40
2016,08,07,01,33,14.40
2016,08,07,01,34,14.40
2016,08,07,01,35,14.40
2016,08,07,01,36,14.30
2016,08,07,01,37,14.30
2016,08,07,01,38,14.30
2016,08,07,01,39,14.30
2016,08,07,01,40,14.30
2016,08,07,01,41,14.30
2016,08,07,01,42,14.30
2016,08,07,01,43,14.20
2016,08,07,01,44,14.20
2016,08,07,01,45,14.20
2016,08,07,01,46,14.20
2016,08,07,01,47,14.20
2016,08,07,01,48,14.10
2016,08,07,01,49,14.10
2016,08,07,01,50,14.10
2016,08,07,01,51,14.10
2016,08,07,01,52,14.10
2016,08,07,01,53,14.10
2016,08,07,01,54,14.10
2016,08,07,01,55,14.00
2016,08,07,01,56,14.00
2016,08,07,01,57,14.00
2016,08,07,01,58,14.00
2016,08,07,01,59,14.00
2016,08,07,02,00,14.00
2016,08,07,02,01,14.00
2016,08,07,02,02,14.00
2016,08,07,02,03,14.00
2016,08,07,02,04,14.00
2016,08,07,02,05,14.00
2016,08,07,02,06,14.00
2016,08,07,02,07,14.00
2016,08,07,02,08,14.00
2016,08,07,02,09,14.00
2016,08,07,02,10,14.00
2016,08,07,02,11,14.00
2016,08,07,02,12,14.00
2016,08,07,02,13,14.00
2016,08,07,02,14,14.00
2016,08,07,02,15,14.00
2016,08,07,02,16,14.10
2016,08,07,02,17,14.10
2016,08,07,02,18,14.10
2016,08,07,02,19,14.10
2016,08,07,02,20,14.10
2016,08,07,02,21,14.10
2016,08,07,02,22,14.10
2016,08,07,02,23,14.10
2016,08,07,02,24,14.10
2016,08,07,02,25,14.10
2016,08,07,02,26,14.10
2016,08,07,02,27,14.10
2016,08,07,02,28,14.10
2016,08,07,02,29,14.10
2016,08,07,02,30,14.10
2016,08,07,02,31,14.10
2016,08,07,02,32,14.10
2016,08,07,02,33,14.10
2016,08,07,02,34,14.10
2016,08,07,02,35,14.10
2016,08,07,02,36,14.10
2016,08,07,02,37,14.10
2016,08,07,02,38,14.10
2016,08,07,02,39,14.10
2016,08,07,02,40,14.10
2016,08,07,02,41,14.10
2016,08,07,02,42,14.10
2016,08,07,02,43,14.10
2016,08,07,02,44,14.10
2016,08,07,02,45,14.10
2016,08,07,02,46,14.00
2016,08,07,02,47,14.00
2016,08,07,02,48,14.10
2016,08,07,02,49,14.10
2016,08,07,02,50,14.00
2016,08,07,02,51,14.10
2016,08,07,02,52,14.10
2016,08,07,02,53,14.10
2016,08,07,02,54,14.10
2016,08,07,02,55,14.10
2016,08,07,02,56,14.10
2016,08,07,02,57,14.10
2016,08,07,02,58,14.10
2016,08,07,02,59,14.10
2016,08,07,03,00,14.10
2016,08,07,03,01,14.10
2016,08,07,03,02,14.10
2016,08,07,03,03,14.10
2016,08,07,03,04,14.10
2016,08,07,03,05,14.00
2016,08,07,03,06,14.00
2016,08,07,03,07,14.00
2016,08,07,03,08,14.00
2016,08,07,03,09,14.00
2016,08,07,03,10,14.00
2016,08,07,03,11,14.00
2016,08,07,03,12,14.00
2016,08,07,03,13,14.00
2016,08,07,03,14,14.00
2016,08,07,03,15,14.00
2016,08,07,03,16,14.00
2016,08,07,03,17,14.00
2016,08,07,03,18,13.90
2016,08,07,03,19,13.90
2016,08,07,03,20,13.90
2016,08,07,03,21,13.90
2016,08,07,03,22,13.90
2016,08,07,03,23,13.90
2016,08,07,03,24,13.90
2016,08,07,03,25,13.90
2016,08,07,03,26,13.90
2016,08,07,03,27,13.90
2016,08,07,03,28,13.90
2016,08,07,03,29,13.90
2016,08,07,03,30,13.90
2016,08,07,03,31,13.90
2016,08,07,03,32,13.80
2016,08,07,03,33,13.80
2016,08,07,03,34,13.80
2016,08,07,03,35,13.70
2016,08,07,03,36,13.70
2016,08,07,03,37,13.70
2016,08,07,03,38,13.60
2016,08,07,03,39,13.60
2016,08,07,03,40,13.60
2016,08,07,03,41,13.50
2016,08,07,03,42,13.50
2016,08,07,03,43,13.40
2016,08,07,03,44,13.30
2016,08,07,03,45,13.30
2016,08,07,03,46,13.30
2016,08,07,03,47,13.20
2016,08,07,03,48,13.20
2016,08,07,03,49,13.20
2016,08,07,03,50,13.20
2016,08,07,03,51,13.20
2016,08,07,03,52,13.20
2016,08,07,03,53,13.10
2016,08,07,03,54,13.10
2016,08,07,03,55,13.10
2016,08,07,03,56,13.10
2016,08,07,03,57,13.10
2016,08,07,03,58,13.10
2016,08,07,03,59,13.10
2016,08,07,04,00,13.10
2016,08,07,04,01,13.00
2016,08,07,04,02,13.00
2016,08,07,05,04,13.20
2016,08,07,05,05,13.20
2016,08,07,05,06,13.20
2016,08,07,05,07,13.20
2016,08,07,05,08,13.20
2016,08,07,05,09,13.20
2016,08,07,05,10,13.20
2016,08,07,05,11,13.20
2016,08,07,05,12,13.20
2016,08,07,05,13,13.20
2016,08,07,05,14,13.20
2016,08,07,05,15,13.20
2016,08,07,05,16,13.20
2016,08,07,05,17,13.20
2016,08,07,05,18,13.20
2016,08,07,05,19,13.20
2016,08,07,05,20,13.20
2016,08,07,05,21,13.20
2016,08,07,05,22,13.30
2016,08,07,05,23,13.30
2016,08,07,05,24,13.30
2016,08,07,05,25,13.30
2016,08,07,05,26,13.30
2016,08,07,05,27,13.30
2016,08,07,05,28,13.30
2016,08,07,05,29,13.30
2016,08,07,05,30,13.30
2016,08,07,05,31,13.30
2016,08,07,05,32,13.30
2016,08,07,05,33,13.30
2016,08,07,05,34,13.30
2016,08,07,05,35,13.30
2016,08,07,05,36,13.30
2016,08,07,05,37,13.30
2016,08,07,05,38,13.30
2016,08,07,05,39,13.30
2016,08,07,05,40,13.40
2016,08,07,05,41,13.40
2016,08,07,05,42,13.40
2016,08,07,05,43,13.40
2016,08,07,05,44,13.40
2016,08,07,05,45,13.40
2016,08,07,05,46,13.40
2016,08,07,05,47,13.40
2016,08,07,05,48,13.40
2016,08,07,05,49,13.40
2016,08,07,05,50,13.40
2016,08,07,05,51,13.40
2016,08,07,05,52,13.40
2016,08,07,05,53,13.40
2016,08,07,05,54,13.40
2016,08,07,05,55,13.40
2016,08,07,05,56,13.40
2016,08,07,05,57,13.40
2016,08,07,05,58,13.40
2016,08,07,05,59,13.40
2016,08,07,06,00,13.40
2016,08,07,06,01,13.40
2016,08,07,06,02,13.40
2016,08,07,06,03,13.40
2016,08,07,06,04,13.40
2016,08,07,06,05,13.40
2016,08,07,06,06,13.40
2016,08,07,06,07,13.40
2016,08,07,06,08,13.40
2016,08,07,06,09,13.40
2016,08,07,06,10,13.40
2016,08,07,06,11,13.40
2016,08,07,06,12,13.40
2016,08,07,06,13,13.40
2016,08,07,06,14,13.40
2016,08,07,06,15,13.40
2016,08,07,06,16,13.40
2016,08,07,06,17,13.40
2016,08,07,06,18,13.40
2016,08,07,06,19,13.40
2016,08,07,06,20,13.40
2016,08,07,06,21,13.40
2016,08,07,06,22,13.40
2016,08,07,06,23,13.50
2016,08,07,06,24,13.50
2016,08,07,06,25,13.50
2016,08,07,06,26,13.50
2016,08,07,06,27,13.50
2016,08,07,06,28,13.50
2016,08,07,06,29,13.60
2016,08,07,06,30,13.60
2016,08,07,06,31,13.60
2016,08,07,06,32,13.60
2016,08,07,06,33,13.60
2016,08,07,06,34,13.60
2016,08,07,06,35,13.60
2016,08,07,06,36,13.70
2016,08,07,06,37,13.70
2016,08,07,06,38,13.70
2016,08,07,06,39,13.70
2016,08,07,06,40,13.70
2016,08,07,06,41,13.70
2016,08,07,06,42,13.80
2016,08,07,06,43,13.80
2016,08,07,06,44,13.80
2016,08,07,06,45,13.80
2016,08,07,06,46,13.80
2016,08,07,06,47,13.80
2016,08,07,06,48,13.80
2016,08,07,06,49,13.80
2016,08,07,06,50,13.90
2016,08,07,06,51,13.90
2016,08,07,06,52,13.90
2016,08,07,06,53,13.90
2016,08,07,06,54,13.90
2016,08,07,06,55,13.90
2016,08,07,06,56,14.00
2016,08,07,06,57,14.00
2016,08,07,06,58,14.00
2016,08,07,06,59,14.00
2016,08,07,07,00,14.10
2016,08,07,07,01,14.10
2016,08,07,07,02,14.10
2016,08,07,07,03,14.10
2016,08,07,07,04,14.20
2016,08,07,07,05,14.20
2016,08,07,07,06,14.20
2016,08,07,07,07,14.20
2016,08,07,07,08,14.30
2016,08,07,07,09,14.30
2016,08,07,07,10,14.30
2016,08,07,07,11,14.40
2016,08,07,07,12,14.40
2016,08,07,07,13,14.40
2016,08,07,07,14,14.50
2016,08,07,07,15,14.50
2016,08,07,07,16,14.50
2016,08,07,07,17,14.60
2016,08,07,07,18,14.60
2016,08,07,07,19,14.60
2016,08,07,07,20,14.70
2016,08,07,07,21,14.70
2016,08,07,07,22,14.70
2016,08,07,07,23,14.80
2016,08,07,07,24,14.80
2016,08,07,07,25,14.90
2016,08,07,07,26,14.90
2016,08,07,07,27,14.90
2016,08,07,07,28,15.00
2016,08,07,07,29,15.00
2016,08,07,07,30,15.10
2016,08,07,07,31,15.10
2016,08,07,07,32,15.20
2016,08,07,07,33,15.20
2016,08,07,07,34,15.30
2016,08,07,07,35,15.30
2016,08,07,07,36,15.40
2016,08,07,07,37,15.40
2016,08,07,07,38,15.40
2016,08,07,07,39,15.50
2016,08,07,07,40,15.50
2016,08,07,07,41,15.60
2016,08,07,07,42,15.60
2016,08,07,07,43,15.60
2016,08,07,07,44,15.70
2016,08,07,07,45,15.70
2016,08,07,07,46,15.70
2016,08,07,07,47,15.80
2016,08,07,07,48,15.80
2016,08,07,07,49,15.80
2016,08,07,07,50,15.90
2016,08,07,07,51,15.90
2016,08,07,07,52,16.00
2016,08,07,07,53,16.00
2016,08,07,07,54,16.10
2016,08,07,07,55,16.10
2016,08,07,07,56,16.10
2016,08,07,07,57,16.00
2016,08,07,07,58,15.90
2016,08,07,07,59,15.80
2016,08,07,08,00,15.70
2016,08,07,08,01,15.50
2016,08,07,08,02,15.40
2016,08,07,08,03,15.20
2016,08,07,08,04,15.10
2016,08,07,08,05,14.90
2016,08,07,08,06,14.80
2016,08,07,08,07,14.60
2016,08,07,08,08,14.40
2016,08,07,08,09,14.30
2016,08,07,08,10,14.20
2016,08,07,08,11,14.10
2016,08,07,08,12,14.00
2016,08,07,08,13,13.90
2016,08,07,08,14,13.90
2016,08,07,08,15,13.90
2016,08,07,08,16,13.80
2016,08,07,08,17,13.80
2016,08,07,08,18,13.80
2016,08,07,08,19,13.70
2016,08,07,08,20,13.70
2016,08,07,08,21,13.80
2016,08,07,08,22,13.80
2016,08,07,08,23,13.90
2016,08,07,08,24,13.90
2016,08,07,08,25,14.00
2016,08,07,08,26,14.10
2016,08,07,08,27,14.20
2016,08,07,08,28,14.20
2016,08,07,08,29,14.30
2016,08,07,08,30,14.30
2016,08,07,08,31,14.40
2016,08,07,08,32,14.40
2016,08,07,08,33,14.50
2016,08,07,08,34,14.60
2016,08,07,08,35,14.60
2016,08,07,08,36,14.60
2016,08,07,08,37,14.70
2016,08,07,08,38,14.70
2016,08,07,08,39,14.70
2016,08,07,08,40,14.80
2016,08,07,08,41,14.80
2016,08,07,08,42,14.80
2016,08,07,08,43,14.90
2016,08,07,08,44,14.90
2016,08,07,08,45,15.00
2016,08,07,08,46,15.00
2016,08,07,08,47,15.10
2016,08,07,08,48,15.10
2016,08,07,08,49,15.20
2016,08,07,08,50,15.20
2016,08,07,08,51,15.30
2016,08,07,08,52,15.30
2016,08,07,08,53,15.40
2016,08,07,08,54,15.50
2016,08,07,08,55,15.60
2016,08,07,08,56,15.70
2016,08,07,08,57,15.80
2016,08,07,08,58,15.80
2016,08,07,08,59,15.80
2016,08,07,09,00,15.90
2016,08,07,09,01,16.00
2016,08,07,09,02,16.00
2016,08,07,09,03,16.10
2016,08,07,09,04,16.10
2016,08,07,09,05,16.20
2016,08,07,09,06,16.20
2016,08,07,09,07,16.30
2016,08,07,09,08,16.30
2016,08,07,09,09,16.40
2016,08,07,09,10,16.40
2016,08,07,09,11,16.40
2016,08,07,09,12,16.50
2016,08,07,09,13,16.50
2016,08,07,09,14,16.60
2016,08,07,09,15,16.60
2016,08,07,09,16,16.60
2016,08,07,09,17,16.60
2016,08,07,09,18,16.60
2016,08,07,09,19,16.60
2016,08,07,09,20,16.60
2016,08,07,09,21,16.60
2016,08,07,09,22,16.60
2016,08,07,09,23,16.70
2016,08,07,09,24,16.70
2016,08,07,09,25,16.70
2016,08,07,09,26,16.70
2016,08,07,09,27,16.60
2016,08,07,09,28,16.60
2016,08,07,09,29,16.60
2016,08,07,09,30,16.60
2016,08,07,09,31,16.60
2016,08,07,09,32,16.60
2016,08,07,09,33,16.60
2016,08,07,09,34,16.60
2016,08,07,09,35,16.50
2016,08,07,09,36,16.50
2016,08,07,09,37,16.50
2016,08,07,09,38,16.50
2016,08,07,09,39,16.50
2016,08,07,09,40,16.50
2016,08,07,09,41,16.50
2016,08,07,09,42,16.50
2016,08,07,09,43,16.40
2016,08,07,09,44,16.40
2016,08,07,09,45,16.40
2016,08,07,09,46,16.40
2016,08,07,09,47,16.40
2016,08,07,09,48,16.30
2016,08,07,09,49,16.30
2016,08,07,09,50,16.30
2016,08,07,09,51,16.30
2016,08,07,09,52,16.30
2016,08,07,09,53,16.20
2016,08,07,09,54,16.20
2016,08,07,09,55,16.20
2016,08,07,09,56,16.20
2016,08,07,09,57,16.10
2016,08,07,09,58,16.10
2016,08,07,09,59,16.10
2016,08,07,10,00,16.00
2016,08,07,10,01,15.90
2016,08,07,10,02,15.90
2016,08,07,10,03,15.80
2016,08,07,10,04,15.70
2016,08,07,10,05,15.70
2016,08,07,10,06,15.60
2016,08,07,10,07,15.60
2016,08,07,10,08,15.50
2016,08,07,10,09,15.50
2016,08,07,10,10,15.50
2016,08,07,10,11,15.40
2016,08,07,10,12,15.40
2016,08,07,10,13,15.40
2016,08,07,10,14,15.40
2016,08,07,10,15,15.40
2016,08,07,10,16,15.40
2016,08,07,10,17,15.40
2016,08,07,10,18,15.50
2016,08,07,10,19,15.50
2016,08,07,10,20,15.50
2016,08,07,10,21,15.60
2016,08,07,10,22,15.60
2016,08,07,10,23,15.60
2016,08,07,10,24,15.70
2016,08,07,10,25,15.70
2016,08,07,10,26,15.70
2016,08,07,10,27,15.70
2016,08,07,10,28,15.80
2016,08,07,10,29,15.80
2016,08,07,10,30,15.80
2016,08,07,10,31,15.80
2016,08,07,10,32,15.80
2016,08,07,10,33,15.90
2016,08,07,10,34,15.90
2016,08,07,10,35,15.90
2016,08,07,10,36,15.90
2016,08,07,10,37,15.90
2016,08,07,10,38,15.90
2016,08,07,10,39,16.00
2016,08,07,10,40,16.00
2016,08,07,10,41,16.00
2016,08,07,10,42,16.00
2016,08,07,10,43,16.00
2016,08,07,10,44,16.00
2016,08,07,10,45,16.00
2016,08,07,10,46,16.00
2016,08,07,10,47,16.00
2016,08,07,10,48,16.00
2016,08,07,10,49,16.00
2016,08,07,10,50,16.00
2016,08,07,10,51,16.00
2016,08,07,10,52,16.00
2016,08,07,10,53,16.10
2016,08,07,10,54,16.10
2016,08,07,10,55,16.10
2016,08,07,10,56,16.10
2016,08,07,10,57,16.00
2016,08,07,10,58,16.00
2016,08,07,10,59,16.10
2016,08,07,11,00,16.10
2016,08,07,11,01,16.10
2016,08,07,11,02,16.10
2016,08,07,11,03,16.10
2016,08,07,11,04,16.10
2016,08,07,11,05,16.10
2016,08,07,11,06,16.10
2016,08,07,11,07,16.10
2016,08,07,11,08,16.10
2016,08,07,11,09,16.10
2016,08,07,11,10,16.10
2016,08,07,11,11,16.10
2016,08,07,11,12,16.10
2016,08,07,11,13,16.10
2016,08,07,11,14,16.10
2016,08,07,11,15,16.10
2016,08,07,11,16,16.10
2016,08,07,11,17,16.10
2016,08,07,11,18,16.10
2016,08,07,11,19,16.10
2016,08,07,11,20,16.00
2016,08,07,11,21,16.10
2016,08,07,11,22,16.10
2016,08,07,11,23,16.10
2016,08,07,11,24,16.10
2016,08,07,11,25,16.10
2016,08,07,11,26,16.20
2016,08,07,11,27,16.20
2016,08,07,11,28,16.20
2016,08,07,11,29,16.20
2016,08,07,11,30,16.20
2016,08,07,11,31,16.20
2016,08,07,11,32,16.20
2016,08,07,11,33,16.20
2016,08,07,11,34,16.20
2016,08,07,11,35,16.20
2016,08,07,11,36,16.20
2016,08,07,11,37,16.20
2016,08,07,11,38,16.20
2016,08,07,11,39,16.20
2016,08,07,11,40,16.30
2016,08,07,11,41,16.40
2016,08,07,11,42,16.40
2016,08,07,11,43,16.50
2016,08,07,11,44,16.60
2016,08,07,11,45,16.70
2016,08,07,11,46,16.80
2016,08,07,11,47,16.80
2016,08,07,11,48,16.90
2016,08,07,11,49,17.00
2016,08,07,11,50,17.10
2016,08,07,11,51,17.20
2016,08,07,11,52,17.30
2016,08,07,11,53,17.30
2016,08,07,11,54,17.30
2016,08,07,11,55,17.30
2016,08,07,11,56,17.30
2016,08,07,11,57,17.40
2016,08,07,11,58,17.40
2016,08,07,11,59,17.40
2016,08,07,12,00,17.40
2016,08,07,12,01,17.40
2016,08,07,12,02,17.40
2016,08,07,12,03,17.40
2016,08,07,12,04,17.40
2016,08,07,12,05,17.40
2016,08,07,12,06,17.40
2016,08,07,12,07,17.40
2016,08,07,12,08,17.40
2016,08,07,12,09,17.40
2016,08,07,12,10,17.50
2016,08,07,12,11,17.60
2016,08,07,12,12,17.60
2016,08,07,12,13,17.60
2016,08,07,12,14,17.70
2016,08,07,12,15,17.70
2016,08,07,12,16,17.80
2016,08,07,12,17,17.90
2016,08,07,12,18,18.00
2016,08,07,12,19,18.10
2016,08,07,12,20,18.20
2016,08,07,12,21,18.20
2016,08,07,12,22,18.30
2016,08,07,12,23,18.30
2016,08,07,12,24,18.30
2016,08,07,12,25,18.30
2016,08,07,12,26,18.30
2016,08,07,12,27,18.30
2016,08,07,12,28,18.30
2016,08,07,12,29,18.30
2016,08,07,12,30,18.30
2016,08,07,12,31,18.30
2016,08,07,12,32,18.30
2016,08,07,12,33,18.20
2016,08,07,12,34,18.10
2016,08,07,12,35,18.00
2016,08,07,12,36,17.90
2016,08,07,12,37,17.80
2016,08,07,12,38,17.80
2016,08,07,12,39,17.70
2016,08,07,12,40,17.70
2016,08,07,12,41,17.70
2016,08,07,12,42,17.70
2016,08,07,12,43,17.70
2016,08,07,12,44,17.60
2016,08,07,12,45,17.60
2016,08,07,12,46,17.50
2016,08,07,12,47,17.50
2016,08,07,12,48,17.60
2016,08,07,12,49,17.60
2016,08,07,12,50,17.60
2016,08,07,12,51,17.70
2016,08,07,12,52,17.70
2016,08,07,12,53,17.70
2016,08,07,12,54,17.70
2016,08,07,12,55,17.70
2016,08,07,12,56,17.70
2016,08,07,12,57,17.70
2016,08,07,12,58,17.70
2016,08,07,12,59,17.70
2016,08,07,13,00,17.80
2016,08,07,13,01,17.80
2016,08,07,13,02,17.80
2016,08,07,13,03,17.90
2016,08,07,13,04,18.00
2016,08,07,13,05,18.10
2016,08,07,13,06,18.10
2016,08,07,13,07,18.20
2016,08,07,13,08,18.20
2016,08,07,13,09,18.30
2016,08,07,13,10,18.30
2016,08,07,13,11,18.30
2016,08,07,13,12,18.40
2016,08,07,13,13,18.40
2016,08,07,13,14,18.40
2016,08,07,13,15,18.40
2016,08,07,13,16,18.40
2016,08,07,13,17,18.40
2016,08,07,13,18,18.50
2016,08,07,13,19,18.50
2016,08,07,13,20,18.50
2016,08,07,13,21,18.50
2016,08,07,13,22,18.50
2016,08,07,13,23,18.50
2016,08,07,13,24,18.60
2016,08,07,13,25,18.60
2016,08,07,13,26,18.70
2016,08,07,13,27,18.80
2016,08,07,13,28,18.90
2016,08,07,13,29,19.00
2016,08,07,13,30,19.00
2016,08,07,13,31,19.00
2016,08,07,13,32,18.90
2016,08,07,13,33,18.90
2016,08,07,13,34,18.90
2016,08,07,13,35,18.90
2016,08,07,13,36,19.00
2016,08,07,13,37,19.00
2016,08,07,13,38,19.10
2016,08,07,13,39,19.30
2016,08,07,13,40,19.40
2016,08,07,13,41,19.60
2016,08,07,13,42,19.80
2016,08,07,13,43,19.90
2016,08,07,13,44,19.90
2016,08,07,13,45,19.90
2016,08,07,13,46,20.00
2016,08,07,13,47,20.00
2016,08,07,13,48,20.00
2016,08,07,13,49,20.00
2016,08,07,13,50,20.10
2016,08,07,13,51,20.10
2016,08,07,13,52,20.10
2016,08,07,13,53,20.00
2016,08,07,13,54,20.00
2016,08,07,13,55,20.00
2016,08,07,13,56,19.90
2016,08,07,13,57,19.90
2016,08,07,13,58,19.90
2016,08,07,13,59,19.90
2016,08,07,14,00,20.00
2016,08,07,14,01,20.00
2016,08,07,14,02,19.80
2016,08,07,14,03,19.70
2016,08,07,14,04,19.50
2016,08,07,14,05,19.40
2016,08,07,14,06,19.40
2016,08,07,14,07,19.40
2016,08,07,14,08,19.40
2016,08,07,14,09,19.40
2016,08,07,14,10,19.50
2016,08,07,14,11,19.50
2016,08,07,14,12,19.50
2016,08,07,14,13,19.50
2016,08,07,14,14,19.50
2016,08,07,14,15,19.40
2016,08,07,14,16,19.40
2016,08,07,14,17,19.30
2016,08,07,14,18,19.30
2016,08,07,14,19,19.20
2016,08,07,14,20,19.20
2016,08,07,14,21,19.10
2016,08,07,14,22,19.10
2016,08,07,14,23,19.10
2016,08,07,14,24,19.10
2016,08,07,14,25,19.00
2016,08,07,14,26,18.90
2016,08,07,14,27,18.80
2016,08,07,14,28,18.80
2016,08,07,14,29,18.80
2016,08,07,14,30,18.90
2016,08,07,14,31,18.90
2016,08,07,14,32,18.90
2016,08,07,14,33,18.80
2016,08,07,14,34,18.80
2016,08,07,14,35,18.70
2016,08,07,14,36,18.70
2016,08,07,14,37,18.60
2016,08,07,14,38,18.60
2016,08,07,14,39,18.60
2016,08,07,14,40,18.60
2016,08,07,14,41,18.60
2016,08,07,14,42,18.50
2016,08,07,14,43,18.60
2016,08,07,14,44,18.50
2016,08,07,14,45,18.50
2016,08,07,14,46,18.40
2016,08,07,14,47,18.30
2016,08,07,14,48,18.30
2016,08,07,14,49,18.40
2016,08,07,14,50,18.40
2016,08,07,14,51,18.50
2016,08,07,14,52,18.60
2016,08,07,14,53,18.70
2016,08,07,14,54,18.80
2016,08,07,14,55,18.90
2016,08,07,14,56,18.90
2016,08,07,14,57,18.90
2016,08,07,14,58,18.90
2016,08,07,14,59,18.90
2016,08,07,15,00,18.90
2016,08,07,15,01,19.00
2016,08,07,15,02,19.00
2016,08,07,15,03,19.00
2016,08,07,15,04,19.10
2016,08,07,15,05,19.20
2016,08,07,15,06,19.20
2016,08,07,15,07,19.20
2016,08,07,15,08,19.30
2016,08,07,15,09,19.30
2016,08,07,15,10,19.40
2016,08,07,15,11,19.40
2016,08,07,15,12,19.40
2016,08,07,15,13,19.50
2016,08,07,15,14,19.50
2016,08,07,15,15,19.60
2016,08,07,15,16,19.60
2016,08,07,15,17,19.50
2016,08,07,15,18,19.50
2016,08,07,15,19,19.50
2016,08,07,15,20,19.50
2016,08,07,15,21,19.60
2016,08,07,15,22,19.60
2016,08,07,15,23,19.60
2016,08,07,15,24,19.60
2016,08,07,15,25,19.50
2016,08,07,15,26,19.50
2016,08,07,15,27,19.50
2016,08,07,15,28,19.50
2016,08,07,15,29,19.60
2016,08,07,15,30,19.70
2016,08,07,15,31,19.70
2016,08,07,15,32,19.80
2016,08,07,15,33,19.80
2016,08,07,15,34,19.80
2016,08,07,15,35,19.80
2016,08,07,15,36,19.80
2016,08,07,15,37,19.80
2016,08,07,15,38,19.80
2016,08,07,15,39,19.80
2016,08,07,15,40,19.80
2016,08,07,15,41,19.70
2016,08,07,15,42,19.70
2016,08,07,15,43,19.70
2016,08,07,15,44,19.60
2016,08,07,15,45,19.60
2016,08,07,15,46,19.60
2016,08,07,15,47,19.50
2016,08,07,15,48,19.40
2016,08,07,15,49,19.40
2016,08,07,15,50,19.30
2016,08,07,15,51,19.30
2016,08,07,15,52,19.40
2016,08,07,15,53,19.40
2016,08,07,15,54,19.40
2016,08,07,15,55,19.40
2016,08,07,15,56,19.40
2016,08,07,15,57,19.40
2016,08,07,15,58,19.40
2016,08,07,15,59,19.40
2016,08,07,16,00,19.40
2016,08,07,16,01,19.30
2016,08,07,16,02,19.30
2016,08,07,16,03,19.30
2016,08,07,16,04,19.30
2016,08,07,16,05,19.30
2016,08,07,16,06,19.30
2016,08,07,16,07,19.20
2016,08,07,16,08,19.20
2016,08,07,16,09,19.10
2016,08,07,16,10,19.10
2016,08,07,16,11,19.00
2016,08,07,16,12,18.90
2016,08,07,16,13,18.90
2016,08,07,16,14,18.80
2016,08,07,16,15,18.80
2016,08,07,16,16,18.80
2016,08,07,16,17,18.80
2016,08,07,16,18,18.80
2016,08,07,16,19,18.70
2016,08,07,16,20,18.70
2016,08,07,16,21,18.60
2016,08,07,16,22,18.50
2016,08,07,16,23,18.50
2016,08,07,16,24,18.40
2016,08,07,16,25,18.30
2016,08,07,16,26,18.30
2016,08,07,16,27,18.20
2016,08,07,16,28,18.20
2016,08,07,16,29,18.10
2016,08,07,16,30,18.10
2016,08,07,16,31,18.00
2016,08,07,16,32,17.90
2016,08,07,16,33,17.90
2016,08,07,16,34,17.80
2016,08,07,16,35,17.80
2016,08,07,16,36,17.70
2016,08,07,16,37,17.70
2016,08,07,16,38,17.70
2016,08,07,16,39,17.70
2016,08,07,16,40,17.70
2016,08,07,16,41,17.70
2016,08,07,16,42,17.60
2016,08,07,16,43,17.60
2016,08,07,16,44,17.50
2016,08,07,16,45,17.50
2016,08,07,16,46,17.40
2016,08,07,16,47,17.40
2016,08,07,16,48,17.40
2016,08,07,16,49,17.40
2016,08,07,16,50,17.30
2016,08,07,16,51,17.30
2016,08,07,16,52,17.30
2016,08,07,16,53,17.30
2016,08,07,16,54,17.20
2016,08,07,16,55,17.10
2016,08,07,16,56,17.10
2016,08,07,16,57,17.10
2016,08,07,16,58,17.10
2016,08,07,16,59,17.10
2016,08,07,17,00,17.10
2016,08,07,17,01,17.10
2016,08,07,17,02,17.10
2016,08,07,17,03,17.10
2016,08,07,17,04,17.10
2016,08,07,17,05,17.10
2016,08,07,17,06,17.10
2016,08,07,17,07,17.10
2016,08,07,17,08,17.20
2016,08,07,17,09,17.30
2016,08,07,17,10,17.40
2016,08,07,17,11,17.50
2016,08,07,17,12,17.60
2016,08,07,17,13,17.70
2016,08,07,17,14,17.80
2016,08,07,17,15,17.90
2016,08,07,17,16,17.90
2016,08,07,17,17,18.00
2016,08,07,17,18,18.00
2016,08,07,17,19,18.10
2016,08,07,17,20,18.20
2016,08,07,17,21,18.20
2016,08,07,17,22,18.30
2016,08,07,17,23,18.30
2016,08,07,17,24,18.30
2016,08,07,17,25,18.30
2016,08,07,17,26,18.30
2016,08,07,17,27,18.30
2016,08,07,17,28,18.30
2016,08,07,17,29,18.30
2016,08,07,17,30,18.30
2016,08,07,17,31,18.30
2016,08,07,17,32,18.30
2016,08,07,17,33,18.30
2016,08,07,17,34,18.30
2016,08,07,17,35,18.30
2016,08,07,17,36,18.20
2016,08,07,17,37,18.20
2016,08,07,17,38,18.20
2016,08,07,17,39,18.20
2016,08,07,17,40,18.10
2016,08,07,17,41,18.10
2016,08,07,17,42,18.00
2016,08,07,17,43,18.00
2016,08,07,17,44,17.90
2016,08,07,17,45,17.90
2016,08,07,17,46,17.80
2016,08,07,17,47,17.70
2016,08,07,17,48,17.50
2016,08,07,17,49,17.50
2016,08,07,17,50,17.40
2016,08,07,17,51,17.30
2016,08,07,17,52,17.30
2016,08,07,17,53,17.30
2016,08,07,17,54,17.30
2016,08,07,17,55,17.40
2016,08,07,17,56,17.40
2016,08,07,17,57,17.40
2016,08,07,17,58,17.40
2016,08,07,17,59,17.40
2016,08,07,18,00,17.30
2016,08,07,18,01,17.30
2016,08,07,18,02,17.30
2016,08,07,18,03,17.30
2016,08,07,18,04,17.40
2016,08,07,18,05,17.40
2016,08,07,18,06,17.30
2016,08,07,18,07,17.30
2016,08,07,18,08,17.30
2016,08,07,18,09,17.30
2016,08,07,18,10,17.30
2016,08,07,18,11,17.30
2016,08,07,18,12,17.30
2016,08,07,18,13,17.30
2016,08,07,18,14,17.30
2016,08,07,18,15,17.30
2016,08,07,18,16,17.30
2016,08,07,18,17,17.30
2016,08,07,18,18,17.30
2016,08,07,18,19,17.30
2016,08,07,18,20,17.30